Back to catalog

AAC-AIS-SAT3

AliveScienceSSO
NORAD 58997·PAYLOAD·🇬🇧 United Kingdom

Launched Nov 11, 2023 from Vandenberg Space Force Base

Loading…

Next Passes (next 24 hours)

TLE

FreshSource: Space-Track

Epoch: Sep 14, 2026, 13:17 UTC

1 58997U 23174DJ  26257.55350231  .00002273  00000-0  27123-3 0  9993
2 58997  97.6167 302.3470 0007213  38.5559 321.6170 14.85173287154414

Track AAC-AIS-SAT3 in real time with AllMySat

Download on the App Store